Flag for India Weather past 2 weeks in Thiruvananthapuram, Kerala, India

Now
91 °F

Passing clouds.


Feels Like: 114 °F
Forecast: 80 / 89 °F
Wind: 6 mph from Southwest

Location: Thiruvananthapuram


UV Index: 10 (Very high)

Visibility: 4 mi


Pressure: 29.68 "Hg

Humidity: 75%

Dew point: 82 °F

Location of ThiruvananthapuramLocation

Historic Weather in Thiruvananthapuram

°F

Thiruvananthapuram temperature yesterday

Maximum temperature yesterday: 91 °F (at 11:40 AM)
Minimum temperature yesterday: 81 °F (at 4:40 AM)
Average temperature yesterday: 86 °F

Past Weeks' High & Low Weather Summary

 TemperatureHumidityPressure
High91 °F (Apr 8, 1:40 PM)94% (Apr 7, 10:40 PM)29.92 "Hg (Apr 7, 10:40 PM)
Low75 °F (Apr 10, 7:40 PM)58% (Apr 11, 8:40 PM)29.68 "Hg (Apr 20, 3:40 PM)
Average85 °F76%29.82 "Hg
* Reported Apr 5 10:40 PM — Apr 20 4:40 PM, Thiruvananthapuram, Weather by CustomWeather, © 2014

Note: Actual official high and low records may vary slightly from our data, if they occured in-between our weather recording intervals... More about our weather records

Advertising

Historic Weather Conditions — Data for Previous 24 hours

 ConditionsComfort  
Time TempWeatherWind HumidityBarometerVisibility
4:40 PM
Apr 20
91 °FPassing clouds.6 mph75%29.68 "Hg4 mi
3:40 PM91 °FPassing clouds.7 mph75%29.68 "Hg4 mi
2:40 PM91 °FPassing clouds.8 mph75%29.71 "Hg4 mi
1:40 PM91 °FPassing clouds.6 mph75%29.74 "Hg4 mi
12:40 PM90 °FPassing clouds.6 mph75%29.77 "Hg4 mi
10:40 AM90 °FScattered clouds.6 mph75%29.80 "Hg4 mi
9:40 AM90 °FPassing clouds.3 mph71%29.80 "Hg4 mi
7:40 AM82 °FHaze.5 mph84%29.80 "Hg2 mi
1:40 AM81 °FPassing clouds.5 mph79%29.74 "Hg2 mi
12:40 AM81 °FPassing clouds.6 mph79%29.77 "Hg2 mi
11:40 PM
Apr 19
82 °FPassing clouds.3 mph74%29.80 "Hg2 mi
10:40 PM84 °FPassing clouds.5 mph74%29.80 "Hg2 mi
8:40 PM86 °FPassing clouds.9 mph79%29.80 "Hg2 mi
7:40 PM88 °FPassing clouds.8 mph75%29.77 "Hg2 mi
6:40 PM88 °FScattered clouds.12 mph75%29.74 "Hg3 mi
5:40 PM90 °FPassing clouds.12 mph71%29.71 "Hg4 mi
Weather by CustomWeather, © 2014

See weather overview